Regional Weather Roundup
Issued by NWS Spokane, WA

Home | Current Version | Previous Version | Text Only | Print | Product List | Glossary On
Versions: 1 2 3 4 5 6 7 8 9 10 11 12 13 14 15 16 17 18 19 20 21 22 23 24 25 26 27 28 29 30 31 32 33 34 35 36 37 38 39 40 41 42 43 44 45 46 47 48 49 50
000
NZUS01 KOTX 260510
RWROTX
EASTERN WASHINGTON/NORTHERN IDAHO ROUNDUP
NATIONAL WEATHER SERVICE, SPOKANE WA
1000 PM PDT FRI JUL 25 2014

Note: "fair" indicated few or no clouds below 12,000 feet with no
significant weather and/or obstructions to visibility.

...NORTHEAST WASHINGTON AND NORTHERN IDAHO PANHANDLE...

CITY           SKY/WX    TMP DP  RH WIND       PRES   REMARKS
SPOKANE INTL   PTCLDY    67  37  33 S3        30.06R
SPOKANE DOWNTO CLEAR     63  39  41 CALM      30.05R
COEUR D ALENE  CLEAR     63  50  63 SE6       30.06R
DEER PARK      CLEAR     57  44  62 CALM      30.06R
SANDPOINT      CLEAR     55  48  76 CALM      30.07R

...SOUTHEAST WASHINGTON AND SOUTHERN IDAHO PANHANDLE...

CITY           SKY/WX    TMP DP  RH WIND       PRES   REMARKS
WALLA WALLA    CLEAR     68  39  34 E8        30.03R
PULLMAN/MOSCOW CLEAR     57  47  69 CALM      30.10R
LEWISTON       LGT RAIN  71  41  33 SE5       30.03R
LOWELL           N/A     61  49  64 N3        30.07R

...COLUMBIA BASIN...

CITY           SKY/WX    TMP DP  RH WIND       PRES   REMARKS
EPHRATA        CLEAR     71  44  37 SW5       30.01R
MOSES LAKE     CLEAR     71  47  42 S5        30.01R
TRI CITIES     CLEAR     66  54  65 CALM      29.98S
HERMISTON      CLEAR     61  46  57 E6        29.99R
PENDLETON      CLEAR     70  33  25 CALM      30.03R

...EAST SLOPES CASCADES...

CITY           SKY/WX    TMP DP  RH WIND       PRES   REMARKS
THE DALLES     CLEAR     71  53  52 N9        30.00R
YAKIMA         CLEAR     67  47  48 CALM      30.01R
ELLENSBURG     CLEAR     67  51  56 NW14      30.04R
WENATCHEE      CLEAR     74  46  36 E7        30.00R
OMAK           CLEAR     69  44  40 NW8       30.01R

...SOUTHERN BRITISH COLUMBIA...

CITY           SKY/WX    TMP DP  RH WIND       PRES   REMARKS
PENTICTON      PTCLDY    64  52  63 N7        30.04R
CRANBROOK      PTCLDY    61  39  44 W8        30.08R

...WESTERN MONTANA...

CITY           SKY/WX    TMP DP  RH WIND       PRES   REMARKS
MISSOULA       CLEAR     65  40  39 CALM      30.09R

...NEIGHBORING CITIES...

CITY           SKY/WX    TMP DP  RH WIND       PRES   REMARKS
SEATTLE        CLEAR     62  51  67 N7        30.11R
CALGARY        MOCLDY    57  45  62 NW10G17   30.01R



USA.gov is the U.S. government's official web portal to all federal, state and local government web resources and services.